Vertical_Velocity
-0 -1 0 -0 1 1 -4 3 -4 -2 -8 14 3 1 -1 0 -2 -3 -2 -1 2 4 3 3 2 -0 -1 5 1 -2 -1 -0 1 1 -1 -3 -2 -1 -3 -3 -2 -2 -3 -6
-1 -0 0 -1 -1 2 0 -3 -12 9 -26 13 3 -1 -1 1 -0 0 1 2 1 3 3 3 1 -2 3 8 2 -1 -0 -0 0 0 -0 -2 -2 -3 -2 -1 -2 -3 -4 -5
-1 1 2 -7 -7 -1 3 1 7 -5 6 -1 3 0 0 -1 -1 0 1 -1 -0 4 5 3 -1 2 13 1 -0 -1 -0 -1 -2 -2 -2 -2 -2 -1 -1 -1 -1 0 -1 -4
-0 -0 0 -6 0 0 0 -1 2 -1 8 0 4 2 1 3 1 -2 -2 -1 1 2 4 2 0 8 -0 0 0 -1 -2 -1 -1 -2 -2 -2 -1 0 -1 -2 -1 -6 4 0
-0 -1 -4 -8 -6 1 5 -6 4 1 5 1 1 -1 -3 -1 0 -0 -1 -0 1 2 0 0 -1 5 1 2 1 -1 -1 -2 -1 -2 -1 1 -0 -2 -3 -6 -0 -7 -1 2
-0 -1 -1 -2 0 3 2 -1 1 1 -1 -2 -3 -5 8 -3 -2 -3 -2 -2 -3 -2 -1 -5 7 0 5 3 -1 1 1 -2 -3 -1 0 2 0 -0 -1 1 -1 -1 -3 1
1 -1 -5 -1 3 -0 1 5 -3 -5 -2 -1 -1 2 -0 -2 -5 -5 -2 -2 -3 -3 -1 -0 1 9 2 -2 -1 -2 3 1 0 -1 0 1 -1 -2 1 2 -5 -4 1 -1
1 -1 -3 1 -0 -1 -1 -3 -2 -0 -1 -1 -1 -4 -2 -2 -4 -3 -0 -1 9 6 7 2 9 7 6 4 1 -4 -6 1 1 0 -1 -2 -2 -2 1 0 -3 -2 -2 1
-3 2 4 3 1 1 -2 -6 -1 -1 2 -2 -2 0 -1 1 1 -0 -2 -5 -1 -8 2 21 2 8 7 0 -4 -3 2 1 -1 0 -2 -2 -1 2 3 -5 2 -3 -3 1
7 2 5 1 -3 -2 -2 -3 -2 0 -3 1 2 1 2 3 3 4 6 5 6 7 17 11 -5 -1 -4 -7 -6 -0 -2 -3 -4 -3 -0 2 1 2 -4 1 1 -2 0 -0
-5 -1 -1 -3 -2 4 1 1 -1 1 1 2 1 3 2 3 6 1 3 3 32 12 1 15 8 -4 -4 -2 1 -2 -3 -2 1 1 -0 -1 0 1 -4 3 1 0 0 -1
-9 -7 3 2 4 -3 1 -0 1 0 1 -0 1 -0 1 0 3 1 2 10 5 -0 -6 -10 6 -0 -3 -2 -3 -2 0 -1 -1 -4 -4 -1 1 1 -2 6 -4 2 3 1
-3 -1 5 -0 -1 0 -1 0 -1 -1 -1 -1 0 1 -1 0 -2 1 16 19 10 -1 1 -7 -2 -2 -4 -4 -3 -3 -1 -2 -2 -5 -2 -1 -3 -2 2 -6 0 -0 1 1
2 4 -1 1 -0 1 0 -1 -1 -1 0 2 1 -1 0 2 2 10 4 2 -6 -11 -3 -9 -10 -2 3 -2 -2 0 -4 -1 -0 -1 -2 -4 0 1 1 -1 -1 -2 2 2
3 2 0 -3 -3 -1 -1 -1 -0 -1 -4 -7 -4 -5 4 7 7 1 -3 -7 -11 -11 -3 -3 -1 -2 -2 -3 -3 -1 3 1 -2 -1 -5 -0 1 1 0 -1 -1 2 0 -3
3 1 1 1 1 -0 -1 -2 -3 -3 -1 4 7 10 8 4 -1 -6 -8 -6 -2 2 4 2 -0 -4 -1 -3 -0 0 -0 -2 0 -4 -1 -0 2 1 -1 -0 -0 2 -0 -0
-4 -2 -0 1 1 -0 -0 -0 -0 -0 -0 -1 -1 -2 -4 -6 -4 -4 -5 -2 -0 2 2 1 2 -1 -1 -0 -2 -1 2 1 -3 -1 1 2 1 -1 0 1 1 1 -0 0
-0 0 -1 -1 -2 -2 -2 -1 1 1 -0 -3 -5 -5 -2 -1 -0 1 1 0 -2 -1 0 -3 -2 1 4 2 -2 -2 2 2 -2 -2 -0 -1 -0 -1 0 2 3 1 1 1
-1 -3 -3 -3 -2 -2 -1 -2 -2 -2 -3 -2 -0 0 0 -2 -0 -1 -1 0 -2 -5 7 0 -1 0 1 2 2 -1 -0 -2 -1 -1 -2 -3 -1 2 1 2 4 2 1 1
-3 -2 -1 -0 0 -2 -1 -0 0 -1 -3 -2 -4 -2 -1 0 -1 -3 -1 -1 -0 -6 -5 -1 0 1 2 3 3 -1 -1 -2 -2 -0 -1 -0 -0 1 2 2 2 2 2 1
-0 -1 -2 -1 0 1 -1 -2 -4 -2 -2 1 -2 -2 -1 -0 -2 -4 -3 -8 12 -2 -2 -0 3 2 -1 -0 -1 -2 -1 -1 -1 -1 2 2 1 0 1 2 1 1 1 -0
-2 -2 -2 -2 -0 0 1 -0 1 -2 -1 -1 -4 -1 -3 -3 -3 1 6 -8 -0 3 1 0 1 3 1 -3 -1 1 -1 -2 -2 0 2 4 4 1 -0 1 1 1 1 -0
2 2 1 -2 -1 -2 0 -2 -1 -2 -4 -1 -1 -3 -2 -5 -5 -10 -9 13 2 1 -1 1 3 4 4 3 2 2 2 2 2 1 2 3 4 3 1 1 0 1 1 1
-2 -1 -1 -0 -2 -2 -2 -1 -0 -2 -1 -1 -2 -2 -7 -5 15 1 1 -3 -0 -0 0 1 1 2 3 1 5 2 2 5 2 -1 0 2 3 3 3 2 1 1 1 1
0 -0 -1 -0 -1 0 0 1 -0 -2 -1 -1 2 -0 1 2 -11 -0 1 0 1 -1 -1 3 2 3 4 5 11 0 1 2 5 -3 -0 1 2 3 2 2 0 0 2 2
1 1 -1 -0 -0 -2 -2 -2 -2 -4 -3 -3 3 -2 -0 -1 -1 -3 -1 -1 -0 0 -0 -1 2 3 3 3 6 7 1 5 6 2 -1 -1 0 1 2 3 1 0 1 0
-0 -0 -1 -1 -0 -2 -2 -4 -5 -3 -4 -4 -0 -4 -4 -3 -3 -3 -2 -3 -2 -1 -1 -0 1 2 3 6 4 9 8 4 3 3 -0 -1 -1 -1 1 1 -0 -1 -2 -1
Height
3114 3115 3115 3115 3115 3116 3116 3117 3117 3115 3113 3114 3112 3110 3109 3108 3108 3107 3106 3106 3106 3105 3103 3102 3101 3099 3096 3093 3091 3088 3085 3080 3076 3072 3068 3063 3057 3051 3045 3039 3033 3026 3021 3016
3111 3111 3112 3111 3112 3112 3112 3112 3110 3109 3107 3107 3106 3104 3104 3103 3102 3101 3100 3100 3099 3098 3097 3095 3094 3091 3089 3085 3083 3080 3076 3073 3069 3065 3060 3054 3049 3043 3037 3031 3025 3019 3014 3008
3109 3108 3108 3108 3105 3106 3106 3105 3105 3104 3104 3101 3099 3099 3098 3097 3096 3095 3094 3094 3092 3091 3090 3088 3085 3084 3081 3079 3076 3072 3069 3065 3061 3057 3052 3046 3041 3035 3029 3023 3018 3012 3005 2999
3106 3106 3107 3101 3100 3101 3101 3101 3100 3098 3098 3096 3094 3092 3092 3091 3090 3089 3089 3087 3085 3083 3082 3080 3079 3077 3074 3071 3067 3064 3061 3057 3053 3049 3043 3038 3032 3026 3021 3016 3010 3005 3000 2992
3104 3103 3100 3099 3097 3097 3096 3097 3095 3094 3092 3090 3088 3087 3087 3086 3085 3084 3081 3079 3077 3076 3074 3073 3071 3069 3065 3062 3059 3056 3053 3049 3045 3040 3035 3029 3023 3018 3012 3007 3002 2997 2994 2988
3100 3101 3098 3095 3094 3093 3092 3092 3090 3089 3088 3087 3085 3084 3085 3080 3079 3076 3074 3072 3070 3068 3067 3065 3062 3058 3055 3052 3051 3049 3045 3042 3037 3031 3026 3020 3014 3009 3004 2999 2994 2990 2986 2982
3096 3096 3093 3091 3090 3090 3091 3094 3087 3086 3084 3083 3082 3080 3077 3074 3071 3069 3067 3065 3064 3062 3060 3056 3053 3047 3045 3043 3044 3041 3038 3034 3028 3023 3017 3011 3006 3001 2996 2990 2986 2983 2979 2975
3091 3092 3091 3088 3088 3090 3088 3084 3082 3081 3079 3077 3076 3072 3070 3067 3064 3062 3060 3058 3056 3052 3049 3047 3044 3039 3037 3037 3035 3032 3029 3025 3019 3014 3008 3002 2997 2992 2988 2983 2979 2976 2972 2969
3090 3088 3086 3084 3084 3082 3079 3078 3077 3074 3072 3070 3067 3065 3062 3060 3057 3054 3052 3049 3046 3041 3038 3035 3031 3031 3030 3028 3026 3025 3021 3016 3011 3005 3000 2995 2990 2986 2980 2977 2972 2968 2965 2962
3083 3083 3082 3079 3078 3075 3073 3071 3070 3068 3065 3063 3060 3057 3054 3052 3049 3046 3044 3041 3037 3034 3029 3026 3023 3022 3022 3021 3020 3017 3013 3008 3003 2997 2993 2988 2982 2978 2974 2970 2965 2962 2959 2956
3077 3077 3074 3074 3071 3069 3067 3064 3062 3060 3057 3054 3052 3049 3046 3043 3041 3037 3034 3031 3025 3023 3021 3018 3015 3015 3016 3016 3013 3010 3005 3000 2995 2990 2986 2980 2975 2971 2967 2963 2959 2955 2952 2950
3070 3069 3068 3068 3065 3061 3059 3057 3054 3051 3049 3046 3043 3040 3037 3033 3031 3028 3025 3021 3018 3013 3012 3014 3012 3011 3011 3009 3006 3002 2997 2992 2987 2983 2978 2974 2969 2964 2960 2957 2953 2950 2947 2944
3064 3063 3061 3059 3056 3054 3051 3049 3046 3043 3040 3037 3034 3031 3028 3025 3022 3017 3012 3010 3008 3009 3008 3009 3009 3008 3006 3003 2999 2994 2990 2985 2980 2975 2971 2967 2962 2957 2953 2949 2946 2944 2941 2938
3055 3055 3053 3051 3049 3047 3044 3040 3037 3034 3031 3028 3025 3023 3020 3016 3013 3010 3009 3008 3007 3006 3006 3005 3005 3003 2999 2995 2991 2987 2982 2978 2973 2968 2963 2959 2955 2950 2947 2943 2939 2937 2935 2933
3049 3046 3045 3043 3040 3037 3035 3032 3029 3026 3023 3020 3017 3016 3013 3010 3009 3009 3008 3006 3003 3001 3001 3000 2997 2994 2991 2987 2984 2979 2974 2969 2965 2961 2956 2951 2947 2943 2940 2936 2933 2931 2929 2926
3041 3040 3037 3035 3033 3030 3028 3024 3021 3019 3017 3014 3013 3012 3011 3010 3008 3005 3004 3001 2999 2999 2996 2993 2990 2987 2984 2980 2975 2971 2966 2961 2958 2953 2948 2943 2940 2936 2932 2929 2926 2925 2923 2921
3034 3032 3030 3028 3025 3022 3020 3018 3017 3015 3014 3013 3012 3011 3008 3006 3004 3000 2998 2998 2996 2993 2990 2987 2983 2979 2975 2971 2966 2962 2958 2953 2949 2944 2940 2935 2931 2928 2925 2922 2920 2918 2917 2915
3027 3025 3023 3021 3019 3018 3017 3016 3015 3014 3012 3010 3008 3006 3004 3001 2998 2996 2994 2992 2989 2987 2984 2980 2975 2971 2967 2962 2957 2953 2948 2943 2939 2935 2931 2927 2923 2919 2917 2914 2913 2911 2910 2908
3022 3020 3019 3018 3017 3016 3015 3014 3012 3010 3009 3007 3005 3002 2999 2996 2994 2991 2988 2986 2983 2979 2976 2971 2967 2962 2957 2952 2947 2942 2937 2933 2929 2925 2921 2917 2914 2910 2908 2906 2904 2903 2902 2900
3018 3018 3018 3017 3015 3013 3012 3010 3008 3006 3005 3003 3001 2998 2996 2993 2989 2986 2982 2978 2975 2971 2965 2961 2956 2951 2946 2941 2936 2931 2927 2922 2918 2914 2911 2907 2904 2902 2899 2898 2896 2895 2893 2892
3016 3015 3014 3013 3012 3010 3008 3007 3005 3003 3001 2998 2995 2993 2989 2986 2982 2978 2973 2969 2966 2959 2954 2949 2944 2939 2934 2929 2925 2920 2916 2911 2906 2903 2900 2898 2895 2893 2891 2889 2888 2886 2885 2883
3013 3012 3011 3009 3008 3006 3004 3002 2999 2997 2995 2992 2989 2985 2981 2977 2973 2969 2964 2957 2952 2947 2941 2936 2931 2926 2921 2917 2913 2909 2905 2901 2897 2894 2892 2889 2887 2884 2883 2881 2879 2878 2876 2874
3008 3007 3006 3005 3003 3001 2999 2997 2995 2991 2989 2985 2981 2977 2971 2966 2960 2954 2949 2945 2938 2932 2926 2921 2917 2913 2909 2906 2902 2898 2895 2891 2888 2885 2883 2880 2878 2875 2873 2872 2870 2869 2868 2866
3004 3003 3002 3000 2998 2996 2994 2991 2988 2985 2981 2977 2972 2966 2960 2954 2949 2942 2936 2929 2923 2918 2912 2907 2903 2900 2896 2893 2891 2888 2885 2882 2879 2876 2873 2870 2868 2866 2864 2862 2861 2860 2859 2857
2999 2997 2996 2994 2992 2989 2987 2984 2980 2976 2972 2967 2962 2955 2949 2942 2934 2928 2920 2914 2908 2902 2897 2893 2889 2886 2884 2882 2880 2877 2874 2872 2870 2867 2864 2861 2859 2857 2855 2852 2851 2850 2849 2847
2993 2991 2989 2987 2985 2982 2979 2975 2971 2966 2961 2955 2948 2941 2935 2927 2920 2913 2907 2901 2894 2888 2883 2878 2875 2873 2871 2870 2868 2867 2864 2862 2861 2858 2856 2853 2850 2847 2845 2843 2841 2840 2839 2837
2987 2985 2983 2981 2978 2975 2971 2966 2961 2955 2949 2942 2936 2929 2922 2915 2909 2902 2895 2889 2883 2877 2871 2867 2864 2861 2860 2858 2857 2855 2854 2852 2851 2849 2847 2844 2842 2839 2836 2834 2832 2831 2829 2827